Wind_Speed
13 13 13 12 12 12 12 12 12 12 12 12 12 11 12 12 11 11 11 12 12 11 11 11 11 11 11 11 11 11 11 11 11 11 12 13 13 14 15 15 16 16 16
14 14 13 13 13 13 13 12 13 13 12 12 12 11 11 12 12 12 12 12 12 12 13 12 12 12 12 12 12 12 11 11 11 12 13 13 14 14 15 15 16 16 16
14 14 14 13 14 14 13 13 13 13 13 12 12 12 12 12 12 12 12 12 12 12 12 12 12 12 11 11 12 11 11 12 12 13 13 14 14 15 15 15 15 16 16
14 14 14 14 15 15 14 15 14 14 14 13 13 13 13 13 13 12 12 12 12 12 12 12 13 12 13 13 12 12 12 13 13 13 13 14 14 15 16 17 16 17 17
14 14 14 14 14 15 15 16 15 14 14 13 14 14 13 13 13 13 13 12 12 12 12 13 13 13 14 14 13 14 14 14 14 14 15 15 15 15 17 16 17 16 16
14 15 15 15 15 16 16 16 15 14 14 13 13 14 13 13 13 13 13 12 12 12 13 13 13 14 14 13 14 14 14 14 14 15 15 15 15 16 16 16 16 16 16
14 15 15 16 16 16 16 16 15 15 15 14 14 14 14 13 13 13 13 13 13 14 14 14 14 14 15 14 15 15 15 15 15 15 15 15 16 16 16 16 16 16 16
14 14 15 15 16 16 16 15 15 15 14 14 14 14 15 14 14 14 14 14 14 14 14 14 14 14 15 15 16 16 16 16 15 16 16 16 16 17 17 16 16 16 17
15 15 15 15 15 15 15 15 15 14 15 14 14 14 15 15 15 15 14 15 15 15 14 15 15 15 14 15 16 16 16 16 16 16 16 17 18 17 17 17 17 16 16
16 16 15 15 15 15 15 15 15 15 16 16 15 14 15 16 15 15 15 15 15 15 15 15 15 15 15 15 16 16 16 16 16 16 17 17 17 17 17 17 17 16 16
17 16 16 16 16 15 15 15 16 16 16 16 16 16 16 16 16 16 15 15 15 16 16 16 16 15 15 15 16 16 16 16 16 16 17 17 16 16 16 17 17 17 17
17 16 16 16 16 16 16 16 16 16 16 16 17 17 17 17 17 16 16 16 15 16 16 16 16 16 16 16 16 16 16 16 16 17 17 16 16 16 16 17 17 18 17
16 17 17 17 17 17 17 17 16 17 17 16 17 17 17 17 18 17 17 17 17 16 16 17 17 16 16 16 16 17 17 17 17 17 17 16 16 16 16 17 17 17 17
17 17 17 18 18 17 17 17 17 17 17 17 16 17 17 17 17 17 17 17 17 17 17 17 18 17 17 17 17 17 18 18 18 18 17 17 17 16 16 16 17 17 17
17 17 17 17 18 17 17 17 17 18 18 17 17 17 18 17 17 18 18 18 18 17 18 18 18 18 18 18 18 18 18 18 18 18 18 17 17 17 17 17 16 16 16
17 17 17 17 18 18 17 18 18 18 18 18 18 18 18 18 18 18 18 18 18 18 18 18 18 18 18 18 18 19 19 18 18 18 17 17 17 17 17 17 16 16 16
17 17 18 17 17 18 18 18 18 18 19 19 19 19 18 18 18 19 19 19 19 19 18 18 17 17 17 18 19 19 19 19 19 18 18 18 17 17 17 17 17 17 17
19 19 18 18 18 18 18 18 19 19 19 20 20 20 19 19 19 19 19 20 19 19 19 19 18 18 18 19 19 20 20 20 20 20 19 19 18 18 18 18 18 18 18
19 19 19 19 19 19 19 19 19 20 20 20 20 20 20 20 20 20 20 20 20 19 19 20 20 19 19 20 20 20 20 20 20 20 19 19 19 18 18 18 18 18 19
19 19 18 19 19 19 19 20 20 20 20 20 20 20 20 20 20 20 20 20 20 20 20 20 20 20 20 19 20 20 20 19 19 19 19 19 19 19 19 19 19 19 19
18 18 19 19 19 20 20 20 20 21 21 21 20 20 20 20 21 21 21 21 21 21 21 21 20 20 20 20 20 20 20 20 19 19 19 20 20 20 19 19 20 20 20
18 19 19 20 20 20 20 20 20 21 21 21 20 20 20 21 21 21 21 22 22 22 22 22 22 21 21 21 22 22 22 21 21 21 21 20 21 21 20 21 21 21 22
19 19 20 19 20 20 21 21 21 21 21 21 21 21 21 21 21 22 22 23 23 23 23 23 23 23 22 22 22 22 22 22 22 22 22 21 22 21 22 22 22 23 23
20 20 20 20 20 21 21 22 22 22 23 23 22 22 22 22 22 23 23 24 24 23 23 24 24 23 23 23 23 23 22 22 21 22 22 22 22 22 23 23 23 23 23
21 21 20 21 21 21 22 22 22 22 22 22 22 23 23 23 24 24 25 24 24 24 24 24 24 25 24 24 24 24 23 23 23 22 23 23 23 24 24 24 24 24 24
21 21 21 22 22 22 22 22 23 23 22 22 22 22 23 24 24 25 25 25 24 25 25 25 25 25 25 25 25 25 25 25 25 25 24 24 24 24 24 25 25 25 26
Wind_Direction
281 277 275 278 279 280 282 284 286 285 286 287 284 286 285 284 284 285 283 282 280 278 279 279 280 283 285 284 282 280 278 278 268 265 264 264 262 265 264 263 261 259 262
282 282 279 280 281 282 283 285 287 285 285 287 285 285 285 285 286 287 284 281 280 278 278 279 282 281 284 282 281 279 277 278 274 276 272 268 267 269 266 264 264 262 265
283 281 281 278 281 281 281 284 286 288 285 285 285 284 285 286 287 287 287 284 283 282 282 281 283 283 287 286 284 282 282 282 281 282 279 274 275 272 268 268 267 266 264
282 279 278 276 279 281 282 284 286 288 286 283 283 286 287 285 286 288 288 287 283 282 283 283 280 281 284 285 285 285 286 287 286 285 283 279 280 276 271 270 271 269 266
281 280 279 281 282 281 282 283 284 287 285 283 283 285 286 285 284 285 287 286 285 283 283 283 281 283 287 286 285 285 286 286 285 283 281 277 277 276 274 272 272 270 267
280 278 279 281 283 281 280 281 282 285 286 284 284 284 283 284 283 283 285 286 285 285 286 285 283 283 284 285 285 285 285 286 285 283 282 278 276 275 274 270 270 268 266
284 278 278 279 282 282 280 278 282 285 286 285 283 283 283 283 283 284 285 286 286 286 287 286 284 283 283 283 283 285 284 286 286 284 283 281 279 275 272 270 270 267 265
286 285 280 280 281 281 279 279 282 284 285 283 280 281 281 280 283 284 285 286 287 288 287 286 285 285 284 283 283 284 284 286 287 285 283 281 279 276 274 271 270 267 265
283 284 282 279 280 280 281 278 277 279 281 281 277 278 279 280 282 286 288 287 286 286 287 286 285 285 285 286 286 286 285 284 285 285 286 284 280 276 274 272 272 271 269
282 281 281 282 279 279 280 278 277 278 279 280 279 278 278 279 281 283 284 285 287 287 287 286 285 285 284 285 287 288 288 288 287 288 288 289 286 278 273 271 270 271 271
283 280 281 282 280 280 282 283 282 280 279 278 278 280 281 280 280 281 281 282 283 285 286 285 285 284 284 285 286 289 290 290 289 289 290 290 286 278 273 270 269 269 269
284 282 281 282 281 280 282 282 281 281 282 280 280 281 281 280 281 280 280 281 283 285 285 285 285 284 284 285 287 288 289 291 291 289 289 287 283 277 273 271 269 268 268
285 284 284 283 281 279 280 280 281 280 283 282 281 281 282 282 281 279 278 278 281 285 285 284 283 283 284 284 285 287 288 290 290 290 288 286 283 279 276 272 270 268 267
286 285 285 284 282 279 279 278 279 281 283 283 282 282 282 282 282 280 280 281 283 286 286 285 284 283 282 284 284 285 287 289 291 291 289 287 283 281 278 275 273 269 266
287 285 283 283 282 280 278 277 277 279 281 282 284 283 281 280 281 281 281 281 282 285 287 287 285 283 283 285 285 286 287 287 288 290 289 286 283 281 279 277 274 271 268
286 285 284 282 281 280 279 278 277 278 279 281 283 283 281 280 280 282 283 283 283 284 287 288 286 284 284 285 287 287 288 289 288 288 287 285 282 280 278 275 272 271 269
286 285 283 282 281 281 281 280 280 280 279 279 280 281 280 279 281 282 283 283 284 284 285 286 287 285 284 284 285 286 287 288 288 288 286 283 281 279 277 273 271 269 269
286 285 282 280 282 281 280 280 281 281 279 277 278 279 279 279 280 281 283 283 284 283 283 285 285 286 286 286 284 284 285 286 286 286 286 285 282 279 277 273 271 269 268
285 285 282 279 280 281 280 280 281 281 280 278 277 276 276 277 278 280 281 282 283 283 283 285 285 286 287 287 285 286 286 286 285 284 284 283 282 280 277 274 271 268 267
285 283 281 280 280 281 280 281 281 281 280 280 277 275 275 278 279 279 279 281 282 282 282 283 284 284 285 285 285 286 287 286 285 284 282 280 280 279 277 273 272 270 267
286 284 283 282 282 284 282 282 281 282 281 279 278 276 274 276 278 279 280 280 280 280 282 282 282 283 283 282 284 284 284 285 284 283 281 281 280 278 275 273 272 271 270
286 285 284 284 283 283 284 284 283 282 281 279 278 277 277 276 276 277 278 279 281 282 283 283 281 282 282 282 281 282 282 282 281 279 279 279 279 278 275 273 271 271 271
287 287 284 285 284 283 284 284 283 283 282 280 278 278 277 278 277 276 277 279 282 283 283 283 282 280 280 280 280 280 281 281 279 278 277 278 278 278 277 274 272 271 272
287 286 285 285 285 285 285 284 284 285 281 281 280 278 276 276 276 277 277 279 280 281 282 282 282 282 281 279 279 278 279 281 281 279 278 278 278 278 276 275 273 272 271
286 285 284 285 285 286 285 284 285 286 284 283 282 279 276 276 277 278 277 278 278 278 280 282 281 281 281 279 279 278 279 279 280 280 280 280 278 276 274 274 274 273 272
286 285 284 284 284 285 285 285 286 285 284 284 283 280 278 277 278 278 278 277 277 278 279 281 280 281 282 280 278 278 279 279 278 278 279 279 278 276 274 274 274 274 273
Height
5854 5854 5854 5854 5854 5854 5854 5854 5853 5853 5853 5852 5852 5851 5851 5851 5850 5850 5850 5850 5849 5849 5849 5849 5849 5848 5848 5848 5848 5848 5847 5847 5847 5848 5848 5848 5848 5849 5849 5849 5849 5849 5849
5852 5851 5852 5852 5852 5851 5851 5851 5851 5850 5850 5850 5849 5849 5849 5848 5848 5848 5847 5847 5847 5847 5847 5847 5847 5846 5846 5845 5845 5845 5845 5845 5845 5845 5845 5845 5845 5845 5846 5845 5845 5845 5845
5849 5849 5849 5849 5849 5848 5848 5848 5848 5848 5848 5847 5847 5846 5846 5846 5845 5845 5845 5844 5844 5844 5844 5844 5844 5844 5844 5843 5843 5843 5843 5842 5842 5842 5842 5842 5842 5842 5842 5842 5842 5842 5841
5846 5846 5846 5846 5846 5846 5845 5845 5845 5845 5845 5845 5844 5844 5843 5843 5843 5842 5842 5842 5842 5841 5841 5841 5841 5841 5841 5841 5841 5840 5840 5840 5839 5839 5839 5838 5838 5838 5838 5838 5838 5838 5838
5843 5843 5843 5843 5843 5843 5842 5842 5842 5841 5841 5841 5841 5841 5841 5840 5840 5840 5839 5839 5839 5839 5839 5839 5838 5838 5838 5838 5838 5837 5837 5837 5836 5836 5835 5835 5834 5834 5834 5834 5834 5834 5834
5839 5839 5839 5839 5839 5839 5839 5838 5838 5838 5838 5838 5838 5838 5838 5837 5837 5837 5837 5836 5836 5836 5836 5836 5836 5835 5835 5835 5835 5834 5834 5833 5833 5832 5832 5831 5830 5830 5830 5830 5830 5830 5830
5836 5836 5836 5836 5835 5835 5835 5835 5835 5835 5834 5834 5835 5835 5835 5834 5834 5834 5834 5833 5833 5833 5833 5833 5832 5832 5832 5832 5831 5831 5830 5830 5829 5829 5828 5827 5827 5827 5826 5826 5826 5826 5826
5832 5832 5832 5832 5831 5831 5831 5831 5831 5831 5831 5831 5831 5831 5831 5832 5831 5831 5830 5830 5830 5830 5829 5829 5829 5829 5828 5828 5827 5827 5827 5826 5825 5825 5824 5823 5822 5822 5822 5822 5822 5822 5822
5828 5828 5828 5828 5827 5827 5827 5827 5828 5828 5828 5827 5827 5828 5828 5828 5827 5827 5827 5827 5827 5826 5826 5826 5825 5825 5825 5824 5824 5823 5822 5822 5821 5820 5819 5818 5817 5816 5817 5817 5818 5818 5818
5824 5824 5824 5824 5824 5824 5823 5823 5824 5824 5824 5824 5823 5823 5824 5824 5824 5824 5824 5823 5823 5823 5822 5822 5822 5821 5821 5820 5820 5819 5819 5818 5817 5816 5815 5812 5810 5810 5812 5813 5813 5814 5814
5820 5820 5820 5820 5820 5820 5820 5820 5820 5820 5820 5820 5820 5819 5820 5820 5820 5820 5820 5819 5819 5819 5818 5818 5818 5817 5817 5816 5816 5815 5815 5814 5813 5812 5810 5808 5806 5806 5807 5808 5809 5809 5810
5816 5816 5816 5816 5816 5816 5816 5816 5816 5816 5815 5815 5815 5816 5815 5815 5815 5815 5816 5815 5815 5815 5814 5814 5813 5813 5813 5812 5812 5811 5810 5810 5809 5808 5807 5805 5804 5803 5803 5804 5804 5805 5805
5812 5812 5811 5811 5811 5811 5812 5812 5812 5812 5812 5811 5811 5811 5811 5811 5811 5811 5811 5811 5811 5810 5810 5809 5809 5809 5808 5808 5808 5807 5806 5805 5804 5803 5802 5801 5800 5800 5799 5799 5800 5800 5800
5808 5807 5807 5807 5807 5807 5807 5807 5807 5808 5807 5807 5807 5807 5807 5807 5806 5806 5807 5806 5806 5806 5805 5805 5804 5804 5804 5803 5803 5803 5802 5801 5800 5798 5797 5796 5796 5795 5795 5795 5795 5795 5795
5803 5803 5802 5802 5802 5802 5802 5803 5803 5803 5803 5803 5803 5802 5802 5802 5802 5802 5802 5801 5802 5801 5801 5800 5800 5799 5799 5799 5798 5798 5797 5796 5795 5793 5792 5792 5791 5791 5790 5790 5790 5790 5790
5798 5798 5798 5798 5798 5798 5798 5798 5798 5798 5798 5798 5798 5798 5797 5797 5797 5797 5796 5796 5796 5796 5795 5795 5794 5794 5794 5793 5793 5792 5791 5790 5789 5788 5787 5787 5786 5786 5785 5785 5785 5785 5785
5793 5793 5793 5793 5793 5793 5793 5793 5793 5793 5793 5793 5793 5792 5792 5792 5792 5792 5791 5791 5790 5790 5790 5789 5789 5789 5788 5788 5787 5787 5786 5785 5784 5783 5782 5781 5781 5780 5780 5779 5779 5779 5780
5788 5788 5788 5788 5788 5788 5788 5788 5788 5787 5787 5787 5787 5787 5787 5787 5787 5786 5786 5785 5785 5784 5784 5784 5784 5783 5783 5782 5782 5781 5780 5779 5778 5777 5776 5776 5775 5775 5774 5774 5774 5774 5774
5783 5783 5783 5783 5783 5783 5782 5782 5782 5782 5782 5781 5781 5781 5781 5781 5781 5781 5780 5780 5779 5779 5779 5778 5778 5778 5777 5776 5776 5775 5774 5773 5772 5771 5770 5770 5769 5769 5768 5768 5768 5768 5768
5778 5778 5777 5777 5777 5777 5777 5776 5776 5776 5776 5775 5775 5775 5775 5775 5775 5775 5774 5774 5774 5773 5773 5773 5772 5772 5771 5770 5769 5769 5768 5767 5766 5765 5764 5764 5763 5763 5762 5762 5762 5762 5762
5773 5772 5772 5772 5771 5771 5771 5770 5770 5770 5770 5769 5769 5769 5769 5769 5769 5769 5768 5768 5768 5767 5767 5766 5766 5765 5765 5764 5763 5762 5762 5761 5760 5759 5759 5758 5757 5757 5756 5756 5756 5756 5756
5767 5767 5766 5766 5765 5765 5765 5764 5764 5764 5763 5763 5763 5762 5762 5762 5762 5762 5762 5762 5762 5761 5760 5760 5759 5759 5758 5757 5757 5756 5755 5754 5754 5754 5752 5752 5751 5751 5750 5750 5750 5750 5750
5762 5761 5761 5760 5760 5759 5759 5758 5758 5757 5757 5756 5756 5756 5756 5756 5756 5756 5755 5755 5755 5754 5753 5753 5752 5752 5751 5750 5749 5748 5747 5747 5746 5746 5745 5745 5745 5744 5743 5743 5742 5742 5742
5757 5756 5755 5755 5754 5754 5753 5752 5751 5751 5750 5750 5749 5749 5749 5749 5749 5749 5749 5748 5748 5747 5746 5746 5745 5744 5743 5742 5741 5741 5740 5740 5739 5738 5738 5738 5737 5737 5736 5735 5735 5735 5735
5751 5750 5749 5749 5748 5748 5746 5745 5744 5744 5743 5743 5743 5742 5742 5742 5742 5741 5741 5741 5740 5740 5739 5738 5737 5736 5735 5734 5734 5733 5733 5732 5732 5731 5730 5730 5729 5729 5729 5728 5728 5727 5727
5745 5744 5743 5743 5742 5741 5740 5739 5738 5737 5737 5737 5736 5736 5735 5735 5734 5733 5733 5733 5733 5732 5731 5730 5730 5729 5728 5727 5726 5725 5725 5724 5724 5723 5723 5722 5722 5721 5721 5720 5720 5719 5719